Weather reports worldwide

Advertisment
Winston Salem, nc, United States of America (2072822): temperature & dewpoint: 11.09.2019 07:00:00 - 17.09.2019 07:00:00 (EDT)Winston Salem, nc, United States of America (2072822): wind speed: 11.09.2019 07:00:00 - 17.09.2019 07:00:00 (EDT)Winston Salem, nc, United States of America (2072822): wind direction: 11.09.2019 07:00:00 - 17.09.2019 07:00:00 (EDT)Winston Salem, nc, United States of America (2072822): reduced air pressure: 11.09.2019 07:00:00 - 17.09.2019 07:00:00 (EDT)Winston Salem, nc, United States of America (2072822): visibility: 11.09.2019 07:00:00 - 17.09.2019 07:00:00 (EDT)
Date & Time tt [°C] td [°C] ff [km/h] ff [kn] dd ppp [hPa] vv [km]
17.09.2019 07:00:00 18,9 16,7 0 0 N 1014,8 16
17.09.2019 06:00:00 19,4 17,2 0 0 N 1014,3 16
17.09.2019 05:00:00 20,0 17,2 0 0 N 1014,1 16
17.09.2019 04:00:00 20,6 17,2 0 0 N 1014,2 16
17.09.2019 03:00:00 21,1 17,2 0 0 N 1014,7 16
17.09.2019 02:00:00 22,2 17,2 0 0 N 1015,0 16
17.09.2019 01:00:00 22,2 17,8 0 0 N 1015,1 10
17.09.2019 00:00:00 24,4 17,2 0 0 N 1015,3 16
16.09.2019 23:00:00 24,4 18,3 0 0 N 1015,3 16
16.09.2019 22:00:00 25,6 17,2 0 0 N 1015,1 16
16.09.2019 21:00:00 25,6 17,2 0 0 N 1014,7 16
16.09.2019 20:00:00 26,7 17,2 0 0 N 1014,7 16
16.09.2019 19:00:00 30,0 15,6 5 3 E 1014,5 16
16.09.2019 18:00:00 32,2 13,9 9 5 E 1014,3 16
16.09.2019 17:00:00 32,8 12,8 11 6 - 1014,4 16
16.09.2019 16:00:00 32,8 14,4 13 7 E 1015,0 16
16.09.2019 15:00:00 32,8 14,4 15 8 E 1015,9 16
16.09.2019 14:00:00 32,2 13,3 8 4 NNW 1016,8 16
16.09.2019 13:00:00 30,6 17,2 9 5 NE 1017,5 16
16.09.2019 12:00:00 28,9 19,4 0 0 N 1018,5 16
16.09.2019 11:00:00 27,8 20,6 0 0 N 1019,3 16
16.09.2019 10:00:00 25,0 20,0 0 0 N 1019,5 16
16.09.2019 09:00:00 22,8 19,4 0 0 N 1019,6 16
16.09.2019 08:00:00 20,0 18,3 0 0 N 1019,4 16
16.09.2019 07:00:00 19,4 17,8 5 3 N 1019,0 16
16.09.2019 06:00:00 19,4 17,8 8 4 N 1018,7 16
16.09.2019 05:00:00 20,0 17,8 0 0 N 1018,8 16
16.09.2019 04:00:00 20,0 17,8 8 4 N 1018,7 16
16.09.2019 03:00:00 20,6 17,8 5 3 N 1018,9 16
16.09.2019 02:00:00 21,7 17,8 0 0 N 1019,1 16
16.09.2019 01:00:00 22,2 18,3 0 0 N 1019,3 16
16.09.2019 00:00:00 22,2 18,3 5 3 N 1019,3 16
15.09.2019 23:00:00 22,8 17,8 8 4 N 1019,2 16
15.09.2019 22:00:00 23,3 18,3 0 0 N 1019,2 16
15.09.2019 21:00:00 24,4 17,8 8 4 NE 1018,9 16
15.09.2019 20:00:00 26,1 18,3 5 3 E 1018,4 16
15.09.2019 19:00:00 28,3 17,8 5 3 ENE 1018,5 16
15.09.2019 18:00:00 30,6 17,2 11 6 ENE 1018,2 16
15.09.2019 17:00:00 30,6 16,7 8 4 ENE 1018,3 16
15.09.2019 16:00:00 30,6 17,2 9 5 E 1018,9 16
15.09.2019 15:00:00 30,6 18,9 9 5 - 1019,2 16
15.09.2019 14:00:00 28,9 18,9 9 5 N 1020,2 16
15.09.2019 13:00:00 27,8 20,0 15 8 NNW 1021,2 16
15.09.2019 12:00:00 27,2 20,6 11 6 NNE 1021,6 16
15.09.2019 11:00:00 26,1 21,1 13 7 NNW 1022,0 16
15.09.2019 10:00:00 26,1 20,0 5 3 - 1021,6 16
15.09.2019 09:00:00 23,9 20,6 0 0 N 1021,7 16
15.09.2019 08:00:00 21,7 20,0 0 0 N 1021,6 13
15.09.2019 07:00:00 21,1 20,0 0 0 N 1021,4 15
15.09.2019 06:00:00 22,2 20,0 0 0 N 1021,0 10
15.09.2019 05:00:00 21,7 20,0 0 0 N 1020,8 16
15.09.2019 04:00:00 22,2 20,0 0 0 N 1020,9 16
15.09.2019 03:00:00 21,1 19,4 0 0 N 1021,2 16
15.09.2019 02:00:00 21,7 19,4 0 0 N 1021,6 16
15.09.2019 01:00:00 21,7 20,0 0 0 N 1021,7 16
15.09.2019 00:00:00 22,8 20,6 0 0 N 1022,0 16
14.09.2019 23:00:00 21,7 20,0 8 4 SE 1022,3 16
14.09.2019 22:00:00 23,9 20,0 0 0 N 1022,5 16
14.09.2019 21:00:00 23,3 20,6 0 0 N 1022,5 16
14.09.2019 20:00:00 25,0 20,6 0 0 N 1022,5 16
14.09.2019 19:00:00 26,1 20,0 8 4 SSE 1022,4 16
14.09.2019 18:00:00 26,7 20,0 0 0 N 1022,2 16
14.09.2019 17:00:00 26,7 19,4 5 3 ENE 1021,8 16
14.09.2019 16:00:00 26,7 19,4 0 0 N 1022,5 16
14.09.2019 15:00:00 26,1 20,0 0 0 N 1023,6 16
14.09.2019 14:00:00 25,0 19,4 11 6 NW 1024,5 16
14.09.2019 13:00:00 24,4 19,4 0 0 N 1025,0 16
14.09.2019 12:00:00 22,8 18,9 0 0 N 1025,8 16
14.09.2019 11:00:00 22,2 18,9 8 4 ESE 1026,2 16
14.09.2019 10:00:00 21,1 18,9 8 4 - 1026,0 16
14.09.2019 09:00:00 21,1 18,9 9 5 NE 1025,6 16
14.09.2019 08:00:00 20,6 18,9 8 4 ENE 1025,5 16
14.09.2019 07:00:00 20,6 18,9 8 4 ENE 1024,8 16
14.09.2019 06:00:00 21,1 18,9 9 5 NE 1024,8 16
14.09.2019 05:00:00 21,7 18,9 8 4 - 1024,5 16
14.09.2019 04:00:00 21,7 18,9 9 5 ESE 1024,5 16
14.09.2019 03:00:00 21,7 19,4 8 4 E 1024,7 16
14.09.2019 02:00:00 22,2 19,4 5 3 E 1025,1 16
14.09.2019 01:00:00 22,2 19,4 9 5 E 1025,3 10
14.09.2019 00:00:00 22,8 19,4 11 6 ESE 1025,2 16
13.09.2019 23:00:00 22,8 20,0 13 7 E 1025,8 16
13.09.2019 22:00:00 23,3 20,6 11 6 E 1025,8 15
13.09.2019 21:00:00 23,9 21,1 11 6 ENE 1025,1 16
13.09.2019 20:00:00 24,4 21,1 16 9 E 1024,4 16
13.09.2019 19:00:00 25,6 21,1 9 5 E 1023,7 16
13.09.2019 18:00:00 26,7 21,1 11 6 NE 1023,1 16
13.09.2019 17:00:00 27,8 21,1 13 7 ENE 1023,4 16
13.09.2019 16:00:00 26,1 20,6 13 7 ENE 1023,1 16
13.09.2019 15:00:00 27,2 20,6 21 11 NE 1023,5 16
13.09.2019 14:00:00 26,7 20,6 11 6 NNE 1024,1 16
13.09.2019 13:00:00 26,1 20,6 16 9 ENE 1024,4 16
13.09.2019 12:00:00 26,7 20,6 15 8 NE 1024,3 16
13.09.2019 11:00:00 23,9 20,6 15 8 ENE 1024,2 13
13.09.2019 10:00:00 23,9 20,6 13 7 NE 1023,7 16
13.09.2019 09:00:00 23,3 20,6 18 10 NE 1023,2 16
13.09.2019 08:00:00 22,8 20,0 18 10 NNE 1022,5 16
13.09.2019 07:00:00 22,8 20,6 15 8 NE 1022,2 16
13.09.2019 06:00:00 23,9 20,0 8 4 NNE 1021,5 16
13.09.2019 05:00:00 23,9 20,6 0 0 N 1020,5 16
13.09.2019 04:00:00 23,9 20,6 0 0 N 1019,8 16
13.09.2019 03:00:00 24,4 20,6 5 3 N 1019,6 16
13.09.2019 02:00:00 24,4 20,6 0 0 N 1019,6 16
13.09.2019 01:00:00 25,0 20,6 0 0 N 1019,5 16
13.09.2019 00:00:00 24,4 20,6 0 0 N 1019,6 16
12.09.2019 23:00:00 26,7 20,0 0 0 N 1019,8 16
12.09.2019 22:00:00 27,2 20,6 9 5 E 1019,9 16
12.09.2019 21:00:00 27,2 21,1 8 4 N 1019,3 16
12.09.2019 20:00:00 29,4 20,6 0 0 N 1018,7 16
12.09.2019 19:00:00 30,6 18,3 0 0 N 1018,5 16
12.09.2019 18:00:00 30,0 18,9 8 4 WSW 1018,3 16
12.09.2019 17:00:00 33,9 18,9 13 7 ESE 1018,1 16
12.09.2019 16:00:00 31,1 19,4 15 8 ENE 1018,4 16
12.09.2019 15:00:00 33,9 18,9 0 0 N 1018,8 16
12.09.2019 14:00:00 32,8 18,9 8 4 NE 1019,6 16
12.09.2019 13:00:00 32,2 19,4 11 6 N 1020,3 16
12.09.2019 12:00:00 32,8 20,0 13 7 ENE 1020,7 16
12.09.2019 11:00:00 31,1 20,0 8 4 NNW 1021,1 16
12.09.2019 10:00:00 28,3 20,6 9 5 NNW 1021,0 16
12.09.2019 09:00:00 26,1 20,6 5 3 NW 1021,0 16
12.09.2019 08:00:00 24,4 20,6 9 5 NW 1020,5 16
12.09.2019 07:00:00 23,3 20,6 0 0 N 1020,0 16
12.09.2019 06:00:00 23,3 20,6 0 0 N 1019,8 16
12.09.2019 05:00:00 23,9 20,6 0 0 N 1019,4 16
12.09.2019 04:00:00 23,3 20,6 0 0 N 1019,2 16
12.09.2019 03:00:00 24,4 20,0 0 0 N 1019,4 16
12.09.2019 02:00:00 24,4 20,0 0 0 N 1020,5 16
12.09.2019 01:00:00 25,6 20,0 16 9 ENE 1021,2 16
12.09.2019 00:00:00 26,1 21,1 8 4 NNE 1021,1 16
11.09.2019 23:00:00 26,7 21,7 0 0 N 1020,8 16
11.09.2019 22:00:00 27,2 21,7 0 0 N 1020,9 16
11.09.2019 21:00:00 27,8 21,1 0 0 N 1020,2 16
11.09.2019 20:00:00 30,6 19,4 5 3 S 1019,6 16
11.09.2019 19:00:00 31,7 19,4 5 3 SW 1019,8 16
11.09.2019 18:00:00 33,3 18,9 9 5 WSW 1019,8 16
11.09.2019 17:00:00 33,3 18,3 5 3 SSE 1020,1 16
11.09.2019 16:00:00 32,8 20,6 0 0 N 1020,9 16
11.09.2019 15:00:00 32,2 21,7 0 0 N 1021,8 16
11.09.2019 14:00:00 30,6 21,7 0 0 N 1022,9 15
11.09.2019 13:00:00 29,4 21,7 11 6 WSW 1023,7 13
11.09.2019 12:00:00 27,2 21,7 8 4 - 1024,6 10
11.09.2019 11:00:00 26,7 21,7 8 4 W 1025,2 11
11.09.2019 10:00:00 25,0 21,7 9 5 WSW 1025,8 10
11.09.2019 09:00:00 23,3 21,7 5 3 - 1025,8 8
11.09.2019 08:00:00 22,8 21,1 5 3 SSE 1025,5 10
11.09.2019 07:00:00 22,8 20,6 0 0 N 1024,9 16

tt = temperature
td = dewpoint
ff = wind speed
dd = wind direction
ppp = reduced air pressure
vv = visibility

Next stations